Preview of NWS' New Version of Forecast
This preview is not operational and should not be used for support decisions.

Regional Weather Roundup (RWR)

Issued by National Weather Service (NWS)

                            
000
ASUS42 KTBW 212217
RWRFL 
FLORIDA REGIONAL WEATHER ROUNDUP
NATIONAL WEATHER SERVICE TAMPA BAY RUSKIN FL
500 PM EST THU FEB 21 2019

NOTE: "FAIR" INDICATES FEW OR NO CLOUDS BELOW 12,000 FEET WITH NO
SIGNIFICANT WEATHER AND/OR OBSTRUCTIONS TO VISIBILITY.

FLZ001>010-012>015-112-114-115-212300-
PANHANDLE FLORIDA
  
CITY           SKY/WX    TMP DP  RH WIND       PRES   REMARKS
PENSACOLA      FOG       70  68  93 SE10      30.02S VSB 1/2          
PENSACOLA NAS  FOG       70  70 100 E12       30.02R VSB 1/2          
MILTON NAS     CLOUDY    75  71  87 S12       30.03                   
CRESTVIEW      CLOUDY    74  70  87 S6        30.06R                  
DUKE FIELD     CLOUDY    73  71  94 S9        30.04S                  
VALPARAISO     CLOUDY    71  70  98 SE7       30.04R FOG              
MARY ESTHER    FOG       69  68  97 E10       30.03  VSB 3/4          
PANAMA CITY    CLOUDY    73  69  87 S10       30.06R                  
TYNDALL AFB    CLOUDY    72  70  94 S9        30.05S FOG              
APALACHICOLA   CLOUDY    71  67  87 SE6       30.07S                  

STATION/POSITION SKY/WX   TEMP    WIND        PRES    WAVE   SWELL
                          AIR SEA DIR/SP/G            HT/PER HT/PER
                          (F)     (DEG/KT/KT) (MB)    (FT/S) (FT/S)
30.1N   87.6W              66      90/  8/ 10   N/A     3/ 7   3/ 7
29.2N   88.2W                     130/  8/  8 1015.9S   3/ 8   3/ 8
PANAMA CITY BEAC           68 64  110/ 10/ 10 1018.2S
TOWER C                    68     120/ 11/ 11 1018.4R

$$
FLZ011-016>038-118-127-128-134-139-239-212300-
NORTH FLORIDA
  
CITY           SKY/WX    TMP DP  RH WIND       PRES   REMARKS
MARIANNA       PTSUNNY   82  68  62 SW12      30.03S                  
TALLAHASSEE    FAIR      80  64  58 S14G23    30.06S                  
PERRY          FAIR      80  67  63 SW10      30.08F                  
LIVE OAK       SUNNY     86  59  39 S5        30.05S                  
CROSS CITY     FAIR      83  64  53 SW10      30.07S                  
LAKE CITY      FAIR      84  57  39 SW3       30.07R                  
GAINESVILLE    PTSUNNY   84  65  52 SE12      30.09R                  
WILLISTON        N/A    N/A N/A N/A MISG        N/A                   
PALATKA        CLOUDY    79  68  69 SE6       30.08F                  
MAYPORT NAS    FAIR      75  68  78 S16       30.09R                  
JACKSONVILLE   FAIR      81  65  58 SE12      30.06R                  
JAX NAS        FAIR      81  65  58 SE13      30.08R                  
JAX CECIL      MOSUNNY   82  66  57 SE12      30.07R                  
FERNANDINA BEA FAIR      74  67  78 S14       30.09R                  
ST AUGUSTINE   CLOUDY    74  68  81 SE13G20   30.10S                  
PALM COAST     RAIN      73  70  88 SW5       30.11R                  

STATION/POSITION SKY/WX   TEMP    WIND        PRES    WAVE   SWELL
                          AIR SEA DIR/SP/G            HT/PER HT/PER
                          (F)     (DEG/KT/KT) (MB)    (FT/S) (FT/S)
SHELL POINT      NOT AVBL
KEATON BEACH               72     200/  4/  5 1019.1R
CEDAR KEY                  74     230/  7/  9 1018.5R
FERNANDINA                        140/ 10/ 14   N/A
30.7N   81.3W                 61                N/A     3/ 8
MAYPORT                           160/ 10/ 16   N/A
31.4N   80.9W              62 61   60/  6/  8 1019.5S   4/ 8   3/ 8
ST AUGUSTINE               66 63  170/  9/  9 1019.3R

$$
FLZ040-043>046-052-053-057-058-063-144-212300-
INTERIOR CENTRAL FLORIDA
  
CITY           SKY/WX    TMP DP  RH WIND       PRES   REMARKS
OCALA          FAIR      81  66  60 SE8       30.07S                  
LEESBURG       FAIR      81  64  56 SE3       30.08S                  
SANFORD        PTSUNNY   81  70  69 NE7       30.07S                  
ORLANDO EXEC   PTSUNNY   84  67  56 S5        30.07S                  
ORLANDO INTL   FAIR      83  67  58 SE6       30.06F                  
KISSIMMEE      FAIR      85  66  53 S9        30.07F                  
WINTER HAVEN   CLOUDY    83  66  56 S3        30.07S                  
LAKELAND       MOSUNNY   84  61  45 SW9       30.07S                  
BARTOW         PTSUNNY   84  66  54 SE6       30.06R                  
SEBRING        FAIR      82  68  61 SE10      30.07R                  
OKEECHOBEE     FAIR      82  64  54 S8        30.06S                  

$$
FLZ041-047-054-059-064-141-147-212300-
EAST CENTRAL FLORIDA
  
CITY           SKY/WX    TMP DP  RH WIND       PRES   REMARKS
ORMOND BEACH   MOSUNNY   75  73  94 CALM      30.10R                  
DAYTONA BEACH  FAIR      78  71  79 E3        30.09S                  
DELAND         CLOUDY    73  72  94 NE5       30.08S                  
NEW SMYRNA BEA MOSUNNY   77  68  73 SE14      30.10R                  
JFK SPACE CTR  FAIR      79 N/A N/A S15G21    30.08S                  
TITUSVILLE     MOSUNNY   81  68  65 S12       30.09S                  
CAPE CANAVERAL FAIR      76  69  80 SE10      30.08S                  
PATRICK AFB    FAIR      74  70  89 S12       30.08S                  
MELBOURNE      FAIR      79  68  69 SE14G25   30.08S                  
VERO BEACH     FAIR      80  69  69 SE16      30.09S                  
FT PIERCE      FAIR      80  68  66 SE18      30.08S                  
STUART         MOSUNNY   82  66  57 SE16G23   30.10S                  

STATION/POSITION SKY/WX   TEMP    WIND        PRES    WAVE   SWELL
                          AIR SEA DIR/SP/G            HT/PER HT/PER
                          (F)     (DEG/KT/KT) (MB)    (FT/S) (FT/S)
28.5N   80.2W              72     150/  6/  8 1019.8R   5/ 8   5/ 8
28.9N   78.5W              76 78  150/ 12/ 16 1021.0S   5/ 8   3/ 8
TRIDENT PIER                      130/  6/  9   N/A
28.4N   80.5W                 67                N/A     3/ 8

$$
FLZ050-056-061-142-242-148-248-149-249-151-251-155-255-
160-260-212300-
WEST CENTRAL FLORIDA
  
CITY           SKY/WX    TMP DP  RH WIND       PRES   REMARKS
CRYSTAL RIVER  FAIR      79  68  69 W8        30.08R                  
INVERNESS      LGT RAIN  79  72  78 CALM      30.08R                  
BROOKSVILLE    FAIR      82  67  60 W10       30.08R                  
CLEARWATER AIR FAIR      79  68  69 S8        30.07R                  
ST PETE CLEARW FAIR      81  66  60 S14       30.07R                  
TAMPA INTL     FAIR      81  69  67 S8        30.07S                  
TAMPA EXEC     FAIR      81  68  65 SW6       30.08R                  
PLANT CITY     FAIR      86  64  48 W10       30.08S                  
MACDILL AFB    FAIR      79  71  75 SW13      30.07R                  
PETER O KNIGHT CLOUDY    81  70  69 SW7       30.08R                  
ST PETERSBURG  FAIR      79  69  71 SW12      30.05S                  
SARASOTA       FAIR      81  70  69 SW12      30.05S                  
VENICE         FAIR      81  72  74 S13       30.06S                  

STATION/POSITION SKY/WX   TEMP    WIND        PRES    WAVE   SWELL
                          AIR SEA DIR/SP/G            HT/PER HT/PER
                          (F)     (DEG/KT/KT) (MB)    (FT/S) (FT/S)
27.3N   84.2W                 73                N/A     3/ 5
CLEARWATER BEACH           75 72  190/ 12/ 13 1018.5R
MIDDLE TAMPA BAY           76     230/ 10/ 11 1018.2R
VENICE                     75 71  160/ 10/ 11 1017.8F

$$
FLZ066-069-070-075>078-162-262-165-265-212300-
SOUTHWEST FLORIDA AND KEYS
  
CITY           SKY/WX    TMP DP  RH WIND       PRES   REMARKS
PUNTA GORDA    PTSUNNY   84  66  54 SW13      30.07S                  
FT MYERS       CLOUDY    81  68  64 VRB3      30.05F                  
SOUTHWEST INTL FAIR      77  71  82 MISG      30.06S                  
NAPLES         FAIR      83  70  64 SW10G18   30.05S                  
MARCO ISLAND   FAIR     N/A N/A N/A S12       30.07                   
IMMOKALEE      CLOUDY    84  70  61 E3        30.04S                  
MARATHON       FAIR      83  71  67 E8G22     30.05R                  
KEY WEST NAS   FAIR      83  70  64 SE14      30.05S                  
KEY WEST INTL  FAIR      82  71  69 SE14      30.05S                  

STATION/POSITION SKY/WX   TEMP    WIND        PRES    WAVE   SWELL
                          AIR SEA DIR/SP/G            HT/PER HT/PER
                          (F)     (DEG/KT/KT) (MB)    (FT/S) (FT/S)
NAPLES                     78 76  150/ 10/ 12 1017.9S
26.0N   85.6W              79 80  130/ 14/ 17 1016.3
DRY TORTUGAS               79     130/  9/  9 1017.3R
SAND KEY                   78                 1017.3S
SOMBRERO KEY               78                 1016.7R
LONG KEY                   79 80  120/ 17/ 21 1017.3F
MOLASSES REEF              78 78  130/ 11/ 12 1018.7R

$$
FLZ067-068-071>074-168-172>174-212300-
SOUTHEAST FLORIDA 
  
CITY           SKY/WX    TMP DP  RH WIND       PRES   REMARKS
W PALM BEACH   FAIR      80  67  64 SE17      30.09F                  
BOCA RATON     SUNNY     81  70  69 E12       30.09F                  
FT LAUDER-EXEC FAIR      81  70  69 E13       30.09S                  
FT LAUDERDALE  FAIR      80  70  71 SE13      30.09R                  
POMPANO BEACH  FAIR      81  69  67 SE10      30.09F                  
PEMBROKE PINES FAIR      81  65  58 E15       30.10S                  
OPA LOCKA      FAIR      82  66  58 SE12      30.09S                  
MIAMI          FAIR      80  68  66 SE12      30.09S                  
WEST KENDALL   FAIR      82  67  60 SE10      30.08S                  
HOMESTEAD      FAIR      82  68  63 E12       30.08S                  

STATION/POSITION SKY/WX   TEMP    WIND        PRES    WAVE   SWELL
                          AIR SEA DIR/SP/G            HT/PER HT/PER
                          (F)     (DEG/KT/KT) (MB)    (FT/S) (FT/S)
PORT EVERGLADES            80     130/  5/  7 1019.1
VIRGINIA KEY               79 80  110/  8/ 10 1018.4S
LAKE WORTH                        140/ 10/ 12   N/A
FOWEY ROCKS                78 78  120/  9/ 10 1019.6R
SETTLEMENT POINT           79     100/  9/ 10 1019.9S

$$